Regional Weather Roundup
Issued by NWS

Home | Current Version | Previous Version | Graphics & Text | Print | Product List | Glossary On
Versions: 1 2 3 4 5 6 7 8 9 10 11 12 13 14 15 16 17 18 19 20 21 22 23 24 25 26 27 28 29 30 31 32 33 34 35 36 37 38 39 40 41 42 43 44 45 46 47 48 49 50
612
ASUS44 KJAN 021210
RWRMS

MISSISSIPPI HOURLY WEATHER ROUNDUP
NATIONAL WEATHER SERVICE JACKSON MS
700 AM CDT TUE SEP 02 2014

NOTE: "FAIR: INDICATES FEW OR NO CLOUDS BELOW 12,000 FEET WITH NO
SIGNIFICANT WEATHER AND/OR OBSTRUCTIONS TO VISIBILITY.

MSZ001>002-007>008-010>013-018>021-025>028-034>036-021300-
NORTHWEST MISSISSIPPI

CITY           SKY/WX    TMP DP  RH WIND       PRES   REMARKS
CLARKSDALE     CLOUDY    75  75 100 CALM      30.04R
CLEVELAND      PTSUNNY   74  74 100 CALM      30.03R
GREENWOOD      PTCLDY    76  73  91 CALM      30.05R
6HR MIN TEMP:  74; 6HR MAX TEMP:  76;

GREENVILLE     CLEAR     74  73  97 CALM      30.02R
6HR MIN TEMP:  74; 6HR MAX TEMP:  76; 6HR PCP: TRACE;

GRENADA        FAIR      73  72  94 CALM      30.06R
OLIVE BRANCH   PTCLDY    72  72 100 S6        30.05R
OXFORD         FAIR      73  72  94 CALM      30.08R
TUNICA         PTSUNNY   73  72  94 SE5       30.04R
$$

MSZ003>006-009-014>017-022>024-029>033-037>039-021300-
NORTHEAST MISSISSIPPI

CITY           SKY/WX    TMP DP  RH WIND       PRES   REMARKS
BELMONT        FAIR      73  71  95 CALM      30.08S
COLUMBUS AFB   PTCLDY    73  73 100 SE5       30.07R
6HR MIN TEMP:  72; 6HR MAX TEMP:  76;

CORINTH        FAIR      73  70  88 CALM      30.06R
GOLDN TRIANGLE CLEAR     73  70  88 SE3       30.07R
STARKVILLE     FAIR      70  70 100 CALM      30.07R FOG
TUPELO         MOCLDY    74  71  91 S3        30.06R
6HR MIN TEMP:  73; 6HR MAX TEMP:  77;

$$

MSZ040-058-021300-
CENTRAL MISSISSIPPI

CITY           SKY/WX    TMP DP  RH WIND       PRES   REMARKS
JACKSON INTL   CLOUDY    76  74  93 S7        30.05R
6HR MIN TEMP:  75; 6HR MAX TEMP:  76;

JACKSON HAWKNS CLOUDY    76  74  93 S7        30.05R
6HR MIN TEMP:  76; 6HR MAX TEMP:  77;

MERIDIAN KEY   CLOUDY    74  72  93 S3        30.07R
6HR MIN TEMP:  73; 6HR MAX TEMP:  75; 6HR PCP: TRACE;

MERIDIAN NAS   CLOUDY    74  72  93 SE3       30.07R
6HR MIN TEMP:  73; 6HR MAX TEMP:  76;

RAYMOND        PTSUNNY   75  72  88 SE3       30.05R
VICKSBURG      MOCLDY    76  74  93 S7        30.02R
6HR MIN TEMP:  75; 6HR MAX TEMP:  77;

$$

MSZ059>079-021300-
SOUTH MISSISSIPPI

CITY           SKY/WX    TMP DP  RH WIND       PRES   REMARKS
BROOKHAVEN     CLOUDY    75  75 100 S5        30.08R FOG
HATTIESBURG    PTCLDY    75  73  93 CALM      30.07R
6HR MIN TEMP:  74; 6HR MAX TEMP:  79;

MCCOMB         FOG       75  74  96 CALM      30.06R VSB 3/4
6HR MIN TEMP:  75; 6HR MAX TEMP:  76;

NATCHEZ        CLOUDY    75  73  94 S5        30.03S
6HR MIN TEMP:  75; 6HR MAX TEMP:  77;

PINE BELT      MOCLDY    73  70  88 CALM      30.08R
6HR MIN TEMP:  73; 6HR MAX TEMP:  75;

$$

MSZ080>082-021300-
COASTAL MISSISSIPPI

CITY           SKY/WX    TMP DP  RH WIND       PRES   REMARKS
BAY ST LOUIS   PTCLDY   N/A N/A N/A CALM      30.05
BILOXI         PTCLDY    78  76  94 NE5       30.06R
6HR MIN TEMP:  78; 6HR MAX TEMP:  84;

PASCAGOULA     CLEAR     72  72 100 CALM      30.06R
6HR MIN TEMP:  71; 6HR MAX TEMP:  78;

GULFPORT       PTCLDY    78  75  90 CALM      30.05R
6HR MIN TEMP:  77; 6HR MAX TEMP:  83;

$$



USA.gov is the U.S. government's official web portal to all federal, state and local government web resources and services.